KE6BZI Weather Reports


time (UTC)temp
F
wind
direction
speed
knots
gust
knots
rain 1hr
in
rain 24hr
in
rain mn
in
humidity
%
barometer
mb
20260507161517 63 303 0.9 4.3 0.00 0.00 0.00 85 1016.9
20260507160014 62 288 0.0 3.5 0.00 0.00 0.00 87 1017.0
20260507154511 61 311 1.7 4.3 0.00 0.00 0.00 88 1017.1
20260507153009 60 303 1.7 3.5 0.00 0.00 0.00 89 1017.0
20260507151507 60 292 1.7 3.5 0.00 0.00 0.00 90 1017.0
20260507150005 60 296 0.0 1.7 0.00 0.00 0.00 91 1016.9
20260507144502 59 335 0.9 3.5 0.00 0.00 0.00 91 1016.8
20260507143104 59 331 0.0 0.0 0.00 0.00 0.00 92 1016.7
20260507141602 59 350 0.0 2.6 0.00 0.00 0.00 92 1016.7
20260507140055 59 287 0.0 1.7 0.00 0.00 0.00 93 1016.6
20260507134556 58 324 0.0 1.7 0.00 0.00 0.00 93 1016.5
20260507133137 58 332 0.0 2.6 0.00 0.00 0.00 93 1016.3
20260507131552 58 335 0.0 0.9 0.00 0.00 0.00 93 1016.3
20260507124555 57 5 0.0 0.0 0.00 0.00 0.00 93 1016.2
20260507123052 57 5 0.0 0.9 0.00 0.00 0.00 93 1016.0
20260507121549 57 5 0.0 0.0 0.00 0.00 0.00 93 1016.1
20260507120049 57 5 0.0 0.0 0.00 0.00 0.00 93 1016.0
20260507114600 57 5 0.0 0.0 0.00 0.00 0.00 93 1016.0
20260507113047 56 5 0.0 0.0 0.00 0.00 0.00 92 1016.0
20260507111546 56 5 0.0 0.0 0.00 0.00 0.00 92 1016.1
20260507110045 57 5 0.0 0.0 0.00 0.00 0.00 92 1016.2
20260507104542 57 5 0.0 0.0 0.00 0.00 0.00 92 1016.2
20260507103045 57 5 0.0 1.7 0.00 0.00 0.00 92 1016.3
20260507101543 57 5 0.0 0.0 0.00 0.00 0.00 92 1016.4
20260507100038 57 5 0.0 0.0 0.00 0.00 0.00 92 1016.5
20260507094547 57 5 0.0 0.0 0.00 0.00 0.00 92 1016.5
20260507093036 57 5 0.0 0.0 0.00 0.00 0.00 92 1016.6
20260507091534 57 5 0.0 0.0 0.00 0.00 0.00 92 1016.7
20260507090031 57 5 0.0 0.0 0.00 0.00 0.00 92 1016.8
20260507084531 57 5 0.0 0.0 0.00 0.00 0.00 92 1017.1
20260507083030 57 5 0.0 0.0 0.00 0.00 0.00 91 1017.2
20260507081531 57 5 0.0 0.0 0.00 0.00 0.00 91 1017.3
20260507080025 57 5 0.0 0.0 0.00 0.00 0.00 91 1017.3
20260507074524 58 5 0.0 0.0 0.00 0.00 0.00 91 1017.4
20260507073023 58 5 0.0 0.0 0.00 0.00 0.00 91 1017.3
20260507071524 58 5 0.0 0.0 0.00 0.00 0.00 91 1017.4
20260507070028 58 5 0.0 0.0 0.00 0.00 0.00 91 1017.6
20260507064519 59 5 0.0 0.0 0.00 0.00 0.00 91 1017.6
20260507063020 59 5 0.0 0.0 0.00 0.00 0.00 91 1017.7
20260507061521 59 5 0.0 0.0 0.00 0.00 0.00 91 1017.7
20260507060020 59 5 0.0 1.7 0.00 0.00 0.00 91 1017.7
20260507054516 59 351 0.9 2.6 0.00 0.00 0.00 90 1017.6
20260507053016 59 331 0.0 0.0 0.00 0.00 0.00 90 1017.6
20260507051517 59 325 0.0 1.7 0.00 0.00 0.00 90 1017.6
20260507050025 60 300 0.0 2.6 0.00 0.00 0.00 89 1017.6
20260507044515 60 322 0.0 0.0 0.00 0.00 0.00 89 1017.5
20260507043014 60 322 0.0 0.9 0.00 0.00 0.00 89 1017.5
20260507041513 60 300 0.0 1.7 0.00 0.00 0.00 88 1017.3
20260507040013 60 323 0.0 2.6 0.00 0.00 0.00 88 1017.3
20260507034511 60 298 0.0 2.6 0.00 0.00 0.00 87 1017.3
20260507033013 61 298 1.7 4.3 0.00 0.00 0.00 86 1017.1
20260507031510 61 302 1.7 7.0 0.00 0.00 0.00 86 1016.9
20260507030012 61 302 1.7 4.3 0.00 0.00 0.00 85 1016.9
20260507024510 61 333 1.7 7.0 0.00 0.00 0.00 84 1016.7
20260507023008 62 285 3.5 7.0 0.00 0.00 0.00 83 1016.6
20260507021507 63 304 2.6 7.8 0.00 0.00 0.00 82 1016.6
20260507020009 64 332 2.6 7.8 0.00 0.00 0.00 81 1016.5
20260507014509 64 300 4.3 8.7 0.00 0.00 0.00 79 1016.5
20260507013005 64 322 4.3 8.7 0.00 0.00 0.00 79 1016.5
20260507011516 65 341 4.3 9.6 0.00 0.00 0.00 78 1016.5
20260507010004 66 315 5.2 11.3 0.00 0.00 0.00 76 1016.4
20260507004503 66 275 5.2 9.6 0.00 0.00 0.00 75 1016.4
20260507003003 66 288 5.2 9.6 0.00 0.00 0.00 75 1016.4
20260507001502 66 291 6.1 10.4 0.00 0.00 0.00 74 1016.2
20260507000002 66 274 7.0 10.4 0.00 0.00 0.00 73 1016.1
20260506234607 67 5 5.2 12.2 0.00 0.00 0.00 73 1016.1
20260506233100 67 333 7.0 10.4 0.00 0.00 0.00 72 1016.2
20260506231558 66 283 4.3 10.4 0.00 0.00 0.00 73 1016.2
20260506230103 67 267 6.1 9.6 0.00 0.00 0.00 72 1016.4
20260506224600 67 285 5.2 11.3 0.00 0.00 0.00 71 1016.5
20260506223054 67 280 5.2 10.4 0.00 0.00 0.00 70 1016.6
20260506221552 67 331 3.5 12.2 0.00 0.00 0.00 69 1016.7
20260506220053 68 293 7.0 11.3 0.00 0.00 0.00 68 1016.9
20260506214549 68 315 4.3 11.3 0.00 0.00 0.00 67 1016.9
20260506213047 68 250 6.1 12.2 0.00 0.00 0.00 67 1017.1
20260506211549 68 286 5.2 11.3 0.00 0.00 0.00 68 1017.0
20260506210044 68 290 4.3 12.2 0.00 0.00 0.00 66 1017.2
20260506204544 68 309 6.1 12.2 0.00 0.00 0.00 66 1017.1
20260506203043 68 281 7.0 13.0 0.00 0.00 0.00 63 1017.2
20260506201541 68 312 4.3 10.4 0.00 0.00 0.00 67 1017.3
20260506200041 68 272 6.1 14.8 0.00 0.00 0.00 66 1017.4
20260506194539 68 20 6.1 11.3 0.00 0.00 0.00 64 1017.6
20260506193042 69 292 4.3 9.6 0.00 0.00 0.00 63 1017.8
20260506191537 69 300 4.3 9.6 0.00 0.00 0.00 64 1017.8
20260506190040 68 263 4.3 9.6 0.00 0.00 0.00 63 1017.9
20260506184544 68 303 4.3 10.4 0.00 0.00 0.00 63 1018.1
20260506183033 68 286 2.6 7.8 0.00 0.00 0.00 64 1018.2
20260506181534 68 279 2.6 7.0 0.00 0.00 0.00 63 1018.3
20260506180031 67 313 2.6 7.8 0.00 0.00 0.00 65 1018.3
20260506174529 66 244 3.5 8.7 0.00 0.01 0.00 65 1018.5
20260506173032 66 311 3.5 8.7 0.00 0.01 0.00 67 1018.6
20260506171527 65 286 4.3 8.7 0.00 0.01 0.00 68 1018.7
20260506170022 65 346 1.7 7.0 0.00 0.01 0.00 69 1018.7
20260506164521 65 350 1.7 7.0 0.00 0.03 0.00 68 1018.7
20260506163027 65 281 3.5 7.8 0.00 0.03 0.00 68 1018.7